weather.gov     
National Weather Service

Weather Roundup
NWS Homepage
This page is being discontinued on March 12, 2014.
The same data is available at this site. Please update your bookmarks.
Thank you, and we apologize for the inconvenience.
Please send an email to SR-SRH.Webmaster@noaa.gov with any concerns.


Current Version
Previous Version:    01  02  03  04  05  06  07  08  09  10  11  12  13  14  15  16  17  18  19  20  21  22  23  24  25  26  27  28  29  30  
   31  32  33  34  35  36  37  38  39  40  41  42  43  44  45  46  47  48  49  50  51  52  53  54  55  56  57  58  59  60  
[Printable]
592
NZUS93 KARX 021710
HRRWXR

CURRENT HOURLY OBSERVATIONS ACROSS
MUCH OF THE UPPER MISSISSIPPI VALLEY
NATIONAL WEATHER SERVICE LA CROSSE WI
1200 PM CDT TUE SEP 02 2014


...SOUTHEAST MINNESOTA...


CITY           SKY/WX    TMP DP  RH WIND       PRES   REMARKS
ROCHESTER      SUNNY     72  59  63 W7        29.94R
ROCHESTER/MAYO FAIR      70  55  58 W10G16    29.92S
WINONA         MOSUNNY   73  59  60 NW8       29.91R
AUSTIN         SUNNY     72  57  60 W9        29.94R
ALBERT LEA     SUNNY     72  57  60 SW6       29.94S
DODGE CENTER   SUNNY     72  59  64 W10       29.93S
PRESTON        SUNNY     72  61  67 CALM      29.94R
OWATONNA       SUNNY     72  57  60 W8        29.93S
FARIBAULT      SUNNY     75  55  50 S6        29.92S
$$

...ELSEWHERE IN MINNESOTA...


CITY           SKY/WX    TMP DP  RH WIND       PRES   REMARKS
MINNEAPOLIS    MOSUNNY   73  54  51 W8        29.90S
INTNL FALLS    MOSUNNY   68  55  63 W9        29.77S
DULUTH         MOSUNNY   72  50  45 W12       29.84S
RED WING       SUNNY     75  57  53 W9        29.89S
REDWOOD FALLS  SUNNY     74  54  49 S8        29.92R
MANKATO        SUNNY     72  57  60 CALM      29.92F
WORTHINGTON    SUNNY     70  57  64 SW10      29.97S
FAIRMONT       SUNNY     72  55  56 W9        29.95S
$$

...SOUTHWEST WISCONSIN...


CITY           SKY/WX    TMP DP  RH WIND       PRES   REMARKS
LA CROSSE      SUNNY     75  56  51 W9        29.90S
PRAIRIE DU CHI SUNNY     73  57  57 SW6       29.91F
BOSCOBEL       SUNNY     76  54  46 W7        29.92R
LONE ROCK      SUNNY     77  60  55 SW7       29.92R
PLATTEVILLE    PTSUNNY   69  62  77 SW7       29.94S
FORT MC COY    SUNNY     73  54  52 W8        29.91S
CAMP DOUGLAS   MOSUNNY   73  59  60 W6        29.91R
VIROQUA        FAIR      73  58  58 SW6       29.93R
WIS DELLS      MOSUNNY   73  56  54 W8        29.91S
$$

...ELSEWHERE IN WISCONSIN...


CITY           SKY/WX    TMP DP  RH WIND       PRES   REMARKS
MILWAUKEE      PTSUNNY   76  57  51 W10       29.89S
MADISON        PTSUNNY   73  61  65 VRB3      29.91S
GREEN BAY      CLOUDY    68  60  75 CALM      29.87F
EAU CLAIRE     SUNNY     73  57  57 W8        29.88R
BLACK RVR FLS  FAIR      72  57  59 W8        29.90S
MEDFORD        SUNNY     69  57  65 NW6       29.88F
WAUSAU         MOSUNNY   70  56  61 W7        29.87S
WIS RAPIDS     SUNNY     72  57  59 W9        29.91S
MARSHFIELD     PTSUNNY   71  61  70 W10       29.89S
RICE LAKE      SUNNY     70  52  53 W7        29.90S
$$

...NORTHEAST IOWA...


CITY           SKY/WX    TMP DP  RH WIND       PRES   REMARKS
WATERLOO       SUNNY     71  58  63 SW9       29.94S
DUBUQUE        SUNNY     71  61  70 W7        29.93S
DECORAH        SUNNY     72  55  56 VRB6      29.93S
MASON CITY     SUNNY     73  60  63 SW13      29.97R
CHARLES CITY   SUNNY     73  59  60 SW8       29.96R
OELWEIN        SUNNY     72  59  64 W7        29.95S
$$

...ELSEWHERE IN IOWA...


CITY           SKY/WX    TMP DP  RH WIND       PRES   REMARKS
DES MOINES     MOSUNNY   75  59  57 VRB5      29.96F
IOWA CITY      SUNNY     75  63  66 CALM      29.95S
FORT DODGE     SUNNY     72  57  60 SW3       29.98F
MARSHALLTOWN   SUNNY     72  60  66 SW10      29.96S
CEDAR RAPIDS   SUNNY     73  61  65 W7        29.94S
$$

...NORTHERN ILLINOIS...


CITY           SKY/WX    TMP DP  RH WIND       PRES   REMARKS
CHICAGO-OHARE  PTSUNNY   79  58  48 W9        29.90S
DUPAGE         SUNNY     80  60  50 W10       29.92S
CHICAGO-MIDWAY PTSUNNY   80  62  54 W5        29.89F
MOLINE         MOSUNNY   76  59  55 CALM      29.94F
ROCKFORD       PTSUNNY   73  56  54 SW3       29.92F
STERLING       MOSUNNY   75  61  60 CALM      29.94S
PEORIA         PTSUNNY   80  67  64 VRB7      29.93F
$$

NOTE: "FAIR" INDICATES FEW OR NO CLOUDS BELOW 12,000 FEET WITH NO
SIGNIFICANT WEATHER AND/OR OBSTRUCTIONS TO VISIBILITY. WIND
SPEEDS ARE IN MILES-PER-HOUR.




U.S. Dept. of Commerce
NOAA National Weather Service
1325 East West Highway
Silver Spring, MD 20910
E-mail: w-nws.webmaster@noaa.gov
Page last modified: May 16, 2007
NATIONAL WEATHER SERVICE: for Safety, for Work, for Fun - FOR LIFE